Location: Stara Lesna
(49.1528°N, 20.2911°E)
Time: 10:15:41
(UTC+02:00)

Cosmos 1605 Rocket - Pass Details

Date: 13 July 2020
Orbit: 944 x 1007 km, 82.9° (Epoch: 05 August)

Event Time Altitude Azimuth Distance (km) Brightness Sun altitude
Exits shadow 01:02:06 30° 166° (SSE) 1,701 4.7 -18.9°
Maximum altitude 01:05:19 65° 94° (E) 1,080 4.2 -18.9°
Drops below altitude 10° 01:11:30 10° 14° (NNE) 2,731 7.6 -18.8°
Sets 01:14:01 0° 12° (NNE) 3,673 8.7 -18.8°
